Regional Weather Roundup
Issued by NWS

Home | Current Version | Previous Version | Graphics & Text | Print | Product List | Glossary On
Versions: 1 2 3 4 5 6 7 8 9 10 11 12 13 14 15 16 17 18 19 20 21 22 23 24 25 26 27 28 29 30 31 32 33 34 35 36 37 38 39 40 41 42 43 44 45 46 47 48 49 50
000
ASUS43 KOAX 262302
RWRNE

WEATHER ROUNDUP FOR NEBRASKA
NATIONAL WEATHER SERVICE OMAHA NE
600 PM CDT WED JUL 26 2017

NOTES: SATELLITE DATA IS BEING USED TO AUGMENT CLOUD COVER ABOVE
       12000 FEET.
       "FAIR" INDICATES FEW OR NO CLOUDS BELOW 12,000 FEET WITH NO
       SIGNIFICANT WEATHER AND/OR OBSTRUCTIONS TO VISIBILITY.


NEZ001>004-019>022-054>056-270000-
NEBRASKA PANHANDLE

CITY           SKY/WX    TMP DP  RH WIND       PRES   REMARKS
SCOTTSBLUFF    CLOUDY    84  58  40 NE14      30.17F
ALLIANCE       CLOUDY    82  60  47 NE14      30.17S
CHADRON        MOSUNNY   83  50  31 E9        30.14F
GORDON         FAIR      81  53  38 NE14      30.16S
KIMBALL        PTSUNNY   80  58  46 E16       30.22S
SIDNEY         MOSUNNY   83  60  45 NE16      30.18F
$$

NEZ057>060-069>072-079>082-270000-
SOUTHWEST NEBRASKA

CITY           SKY/WX    TMP DP  RH WIND       PRES   REMARKS
NORTH PLATTE   CLOUDY    79  68  69 E3        30.09S
IMPERIAL       CLOUDY    79  64  60 NE14      30.11R
LEXINGTON      CLOUDY    78  68  69 NE9       30.06R
MCCOOK         CLOUDY    80  68  66 NE15      30.05F
OGALLALA       CLOUDY    84  64  50 E7        30.11S
$$

NEZ005>010-023>029-035>040-094-270000-
NORTH CENTRAL NEBRASKA

CITY           SKY/WX    TMP DP  RH WIND       PRES   REMARKS
VALENTINE      MOSUNNY   87  56  34 NE16      30.10S
AINSWORTH      PTSUNNY   81  68  65 E10       30.10S
BROKEN BOW     CLOUDY    81  66  60 NE12      30.07R
O`NEILL        CLOUDY    81  68  63 NE14G20   30.07R
ORD            CLOUDY    81  67  62 NE10      30.03S
THEDFORD       PTSUNNY   81  67  62 E10       30.11S
$$

NEZ041-046>049-061>064-073>077-083>087-270000-
SOUTH CENTRAL NEBRASKA

CITY           SKY/WX    TMP DP  RH WIND       PRES   REMARKS
GRAND ISLAND   CLOUDY    78  72  81 NE13      30.03R
AURORA         CLOUDY    78  73  87 NE8       30.02S
HASTINGS       CLOUDY    78  71  79 E12       30.03S
HEBRON         CLOUDY    79  73  80 N15G21    29.99R
HOLDREGE       CLOUDY    76  70  81 NE10      30.04S
KEARNEY        CLOUDY    79  71  76 NE12      30.04R
YORK           CLOUDY    77  73  88 NE10      30.01S
$$

NEZ011>018-030>034-042>045-270000-
NORTHEAST NEBRASKA

CITY           SKY/WX    TMP DP  RH WIND       PRES   REMARKS
NORFOLK        CLOUDY    81  69  67 NE12      30.02R
ALBION         DRIZZLE   79  73  82 NE7       30.03S
BLAIR          LGT RAIN  74  73  97 CALM      30.01R
COLUMBUS       CLOUDY    80  73  79 NE8       30.01S
FREMONT        CLOUDY    76  73  88 CALM      30.01R
TEKAMAH        CLOUDY    80  73  79 CALM      29.98S
WAYNE          CLOUDY    82  75  80 NE6       30.01S
$$

NEZ050>053-065>068-078-088>093-270000-
SOUTHEAST NEBRASKA

CITY           SKY/WX    TMP DP  RH WIND       PRES   REMARKS
LINCOLN        RAIN      74  73  97 NE8       29.99S FOG
OMAHA EPPLEY   CLOUDY    76  72  87 N3        29.99R
BEATRICE       LGT RAIN  81  74  81 N8        29.98R
FALLS CITY     CLOUDY    80  73  79 SW9       29.98R
NEBRASKA CITY  TSTM      76  76 100 CALM      29.99R
PLATTSMOUTH    CLOUDY    75  74  96 CALM      29.99R FOG
$$

NEZ044-045-051>053-067-270000-
OMAHA AREA

CITY           SKY/WX    TMP DP  RH WIND       PRES   REMARKS
OMAHA EPPLEY   CLOUDY    76  72  87 N3        29.99R
BLAIR          LGT RAIN  74  73  97 CALM      30.01R
FREMONT        CLOUDY    76  73  88 CALM      30.01R
MILLARD        HVY RAIN  76  75  95 N3        29.99S
OFFUTT AFB     LGT RAIN  76  74  93 NE5       29.98S
PLATTSMOUTH    CLOUDY    75  74  96 CALM      29.99R FOG
WAHOO          MOCLDY    74  73  96 NE5       30.00S
$$




USA.gov is the U.S. government's official web portal to all federal, state and local government web resources and services.